Regional Weather Roundup
Issued by NWS

Home | Current Version | Previous Version | Text Only | Print | Product List | Glossary On
Versions: 1 2 3 4 5 6 7 8 9 10 11 12 13 14 15 16 17 18 19 20 21 22 23 24 25 26 27 28 29 30 31 32 33 34 35 36 37 38 39 40 41 42 43 44 45 46 47 48 49 50
000
ASUS43 KBIS 040410
RWRND

NORTH DAKOTA REGIONAL WEATHER ROUNDUP
NATIONAL WEATHER SERVICE BISMARCK ND
1100 PM CDT MON AUG 03 2015

NOTE: "FAIR" INDICATES FEW OR NO CLOUDS BELOW 12,000 FEET WITH NO
SIGNIFICANT WEATHER AND/OR OBSTRUCTIONS TO VISIBILITY.


NDZ001>003-009>011-017-040500-
NORTHWEST NORTH DAKOTA

CITY           SKY/WX    TMP DP  RH WIND       PRES   REMARKS
WILLISTON      CLEAR     69  48  47 E5        29.97R
MINOT          CLEAR     65  49  56 S5        29.97R
MINOT AFB      CLEAR     61  51  69 S5        29.96R
$$

NDZ018>021-031>035-040>046-040500-
SOUTHWEST NORTH DAKOTA

CITY           SKY/WX    TMP DP  RH WIND       PRES   REMARKS
BISMARCK       CLEAR     65  52  62 NE6       29.98R
DICKINSON      PTCLDY    62  51  67 E9        29.98R
GARRISON         N/A     59  53  80 NE3       29.98R
HETTINGER ARPT MOCLDY    69  52  54 E10       29.99R
$$

NDZ004>008-012>016-024-026-027-054-040500-
NORTHEAST NORTH DAKOTA

CITY           SKY/WX    TMP DP  RH WIND       PRES   REMARKS
GRAND FORKS    CLEAR     61  52  72 E5        29.92R
GRND FRKS AFB  CLEAR     55  50  83 W5        29.92R
DEVILS LAKE    CLEAR     61  52  72 CALM      29.96R
$$

NDZ022-023-025-028>030-036>039-047>053-040500-
SOUTHEAST NORTH DAKOTA

CITY           SKY/WX    TMP DP  RH WIND       PRES   REMARKS
FARGO          CLEAR     59  51  75 SW5       29.94R
JAMESTOWN      CLEAR     58  53  84 NE3       29.97R
$$



USA.gov is the U.S. government's official web portal to all federal, state and local government web resources and services.